Flag for Germany Weather past 2 weeks in Neu-Isenburg, Hesse, Germany

Now
40 °F

Light rain. Low clouds.


Feels Like: 40 °F
Forecast: 30 / 45 °F
Wind: 2 mph from Northeast

Location: Frankfurt / M-Flughafen

Current Time: Feb 27, 2015 at 1:27:01 PM

Latest Report: Feb 27, 2015 at 1:00 PM


Visibility: 9 mi

Pressure: 29.92 "Hg

Humidity: 93%

Dew point: 38 °F

Location of Neu-IsenburgLocation

Historic Weather in Neu-Isenburg — Graph

°F

Neu-Isenburg temperature yesterday

Maximum temperature yesterday: 48 °F (at 5:00 PM)
Minimum temperature yesterday: 37 °F (at 7:00 AM)
Average temperature yesterday: 42 °F

Past Weeks' High & Low Weather Summary

 TemperatureHumidityPressure
High52 °F (Feb 20, 5:00 PM)100% (Feb 23, 12:00 PM)30.77 "Hg (Feb 23, 12:00 PM)
Low25 °F (Feb 15, 5:00 AM)51% (Feb 21, 1:00 AM)29.47 "Hg (Feb 21, 6:00 AM)
Average37 °F82%30.05 "Hg
* Reported Feb 12 12:00 Noon — Feb 27 12:00 Noon, Neu-Isenburg, Weather by CustomWeather, © 2015

Note: Actual official high and low records may vary slightly from our data, if they occured in-between our weather recording intervals... More about our weather records

Advertising

Neu-Isenburg weather history for previous 24 hours

 ConditionsComfort  
Time TempWeatherWind HumidityBarometerVisibility
12:00 PM
Fri, Feb 27
40 °FLight rain. Low clouds.2 mph89%29.91 "Hg7 mi
11:00 AM39 °FLight rain. Low clouds.1 mph89%29.89 "Hg9 mi
10:00 AM39 °FLight rain. Low clouds.1 mph84%29.88 "Hg9 mi
9:00 AM39 °FLight rain. Overcast.1 mph95%29.85 "Hg9 mi
8:00 AM39 °FLight rain. Overcast.2 mph98%29.83 "Hg10 mi
7:00 AM38 °FLight rain. Overcast.1 mph98%29.83 "Hg12 mi
6:00 AM39 °FLight rain. Overcast.3 mph89%29.83 "Hg11 mi
5:00 AM39 °FLight rain. Overcast.1 mph88%29.82 "Hg12 mi
4:00 AM39 °FLight rain. Overcast.1 mph80%29.83 "Hg19 mi
3:00 AM40 °FOvercast.1 mph81%29.84 "Hg25 mi
2:00 AM39 °FOvercast.1 mph72%29.86 "Hg31 mi
1:00 AM40 °FOvercast.2 mph74%29.88 "Hg31 mi
12:00 AM42 °FOvercast.2 mph64%29.89 "Hg31 mi
11:00 PM
Thu, Feb 26
44 °FOvercast.2 mph60%29.91 "Hg28 mi
9:00 PM43 °FPassing clouds.3 mph68%29.95 "Hg28 mi
8:00 PM42 °FPassing clouds.2 mph75%29.98 "Hg28 mi
7:00 PM43 °FPassing clouds.2 mph79%29.99 "Hg28 mi
6:00 PM46 °FScattered clouds.1 mph67%30.00 "Hg28 mi
5:00 PM48 °FScattered clouds.2 mph60%30.02 "Hg34 mi
3:00 PM47 °FPartly sunny.6 mph60%30.06 "Hg25 mi
2:00 PM47 °FPartly sunny.6 mph63%30.09 "Hg19 mi
1:00 PM46 °FOvercast.2 mph70%30.12 "Hg16 mi
Weather by CustomWeather, © 2015

See weather overviewHow to use our weather pages